Location: Goheenville
(40.9070°N, 79.3720°W)
Time: 03:30:51
(UTC-05:00)

Cosmos 1727 Rocket - Visible Passes

Search period start: 29 November 2014 00:00
Search period end: 09 December 2014 00:00
Orbit: 961 x 997 km, 82.9° (Epoch: 29 November)

Date Brightness Start Highest point End Pass type
(mag) Time Alt. Az. Time Alt. Az. Time Alt. Az.
29 Nov 5.8 19:24:57 10° N 19:26:13 17° N 19:26:13 17° N visible
30 Nov 5.8 18:07:40 10° NNE 18:08:25 12° NE 18:08:25 12° NE visible
30 Nov 5.7 19:51:17 10° N 19:53:13 21° NNW 19:53:13 21° NNW visible
01 Dec 5.2 18:32:52 10° NNE 18:35:41 22° NE 18:35:41 22° NE visible
01 Dec 5.8 20:17:57 10° NNW 20:20:31 24° NW 20:20:31 24° NW visible
02 Dec 4.3 18:58:46 10° N 19:03:36 45° NE 19:03:36 45° NE visible
02 Dec 6.1 20:45:07 10° NW 20:48:30 22° WNW 20:48:30 22° WNW visible
03 Dec 6.6 06:46:25 10° ESE 06:50:02 16° E 06:53:39 10° NE visible
03 Dec 5.4 17:41:48 10° NNE 17:45:06 14° ENE 17:48:24 10° E visible
03 Dec 3.9 19:25:02 10° N 19:31:24 87° W 19:37:44 10° S visible
03 Dec 6.7 21:13:36 10° WNW 21:15:49 12° WNW 21:18:02 10° W visible
04 Dec 4.8 18:06:47 10° NNE 18:12:00 26° ENE 18:17:13 10° SE visible
04 Dec 4.8 19:51:39 10° NNW 19:57:40 48° W 20:03:41 10° SSW visible
05 Dec 4.2 18:32:36 10° N 18:38:42 47° ENE 18:44:46 10° SSE visible
05 Dec 5.9 20:18:43 10° NNW 20:23:47 26° W 20:28:51 10° SW visible
06 Dec 6.7 06:20:44 10° ESE 06:23:54 15° E 06:27:04 10° NE visible
06 Dec 5.5 17:16:01 10° NE 17:18:47 13° ENE 17:21:32 10° E visible
06 Dec 3.9 18:58:49 10° N 19:05:11 86° E 19:11:32 10° S visible
06 Dec 6.7 20:46:47 10° NW 20:49:42 14° W 20:52:37 10° WSW visible
07 Dec 6.2 06:44:44 10° SE 06:49:50 28° E 06:54:58 10° NNE visible
07 Dec 5.0 17:40:43 10° NNE 17:45:43 24° ENE 17:50:43 10° ESE visible
07 Dec 4.7 19:25:22 10° NNW 19:31:30 53° W 19:37:36 10° SSW visible
08 Dec 4.3 18:06:26 10° N 18:12:27 43° ENE 18:18:25 10° SSE visible
08 Dec 5.8 19:52:20 10° NNW 19:57:38 29° W 20:02:55 10° SW visible
